{"data":{"norad_id":63556,"epoch":"2026-09-19T17:47:48.511680Z","epoch_age_seconds":221202,"freshness":"STALE","line1":"1 63556U 25075J   26262.74153370  .00156683  00000+0  11989-2 0  9990","line2":"2 63556  43.0000  64.5043 0001800 257.1593 102.9074 15.70895159 83764","mean_motion":15.70895159,"eccentricity":0.00018,"inclination_deg":43,"raan_deg":64.5043,"arg_perigee_deg":257.1593,"mean_anomaly_deg":102.9074,"bstar":0.0011989,"rev_number":8376,"period_min":91.667479637322,"perigee_km":355.12520604246,"apogee_km":357.54961683058,"semimajor_km":6734.4744114365,"source":"CELESTRAK","updated_at":"2026-09-21T09:00:35.020541Z"}}